Home   Weather   Newman   Past weeks

Flag for Australia Past Weather in Newman, Western Australia, Australia — Yesterday and Last 2 Weeks

Now
83 °F

Overcast.


Feels Like: 84 °F
Forecast: 79 / 100 °F
Wind: 8 mph from Northwest

Location: Telfer

Current Time: Dec 11, 2016 at 2:44:10 am

Latest Report: Dec 11, 2016 at 12:00 am


Visibility: N/A

Pressure: 29.78 "Hg (27.99 "Hg at 546m altitude)

Humidity: 51%

Dew Point: 63 °F

Location of NewmanLocation

Past Weather in Newman — Graph

°F

Newman Temperature Yesterday

Maximum temperature yesterday: 99 °F (at 12:00 pm)
Minimum temperature yesterday: 83 °F (at 9:00 pm)
Average temperature yesterday: 89 °F

High & Low Weather Summary for the Past Weeks

 TemperatureHumidityPressure
High108 °F (Dec 1, 2:00 pm)88% (Dec 5, 8:00 pm)29.85 "Hg (Dec 5, 8:00 pm)
Low77 °F (Dec 6, 12:00 am)13% (Dec 1, 2:00 pm)29.53 "Hg (Dec 1, 5:00 pm)
Average91 °F37%29.73 "Hg
* Reported Nov 26 12:00 am — Dec 11 12:00 am, Newman, Weather by CustomWeather, © 2016

Note: Actual official high and low records may vary slightly from our data, if they occured in-between our weather recording intervals... More about our weather records

Advertising

Newman Weather History for the Previous 24 Hours

Scroll right to see more
 ConditionsComfort  
Time TempWeatherWind HumidityBarometerVisibility
12:00 am
Sun, Dec 11
83 °FOvercast.8 mph51%29.78 "HgN/A
11:00 pm
Sat, Dec 10
83 °FWarm.6 mph49%29.79 "HgN/A
9:00 pm83 °FPassing clouds.9 mph53%29.81 "HgN/A
8:00 pm83 °FWarm.14 mph54%29.81 "HgN/A
6:00 pm93 °FOvercast.7 mph38%29.74 "HgN/A
5:00 pm93 °FExtremely hot.14 mph38%29.70 "HgN/A
3:00 pm95 °FOvercast.14 mph32%29.72 "HgN/A
2:00 pm95 °FExtremely hot.18 mph35%29.74 "HgN/A
12:00 pm99 °FExtremely hot.10 mph28%29.76 "HgN/A
11:00 am98 °FExtremely hot.12 mph28%29.79 "HgN/A
9:00 am95 °FExtremely hot.13 mph31%29.83 "HgN/A
8:00 am91 °FHot.14 mph33%29.83 "HgN/A
6:00 am84 °FPleasantly warm.9 mph39%29.81 "HgN/A
5:00 am84 °FPleasantly warm.10 mph39%29.78 "HgN/A
3:00 am84 °FOvercast.7 mph41%29.77 "HgN/A
2:00 am85 °FWarm.12 mph40%29.76 "HgN/A
Weather by CustomWeather, © 2016

See weather overviewHow to use our weather pages